Midland Airpark, TX

8:34 PM CDT on June 27, 2017 (GMT -0500)
Midland

Weather History for KMDD - November, 2012

Change the Weather History Date:

Thursday, November 29, 2012

  Actual Average (KMAF) Record (KMAF)
Temperature  
Mean Temperature 62 °F -  
Max Temperature 76 °F 59 °F 78 °F (1975)
Min Temperature 47 °F 34 °F 11 °F (2001)
Degree Days  
Heating Degree Days 4    
Growing Degree Days 12 (Base 50)    
Moisture  
Dew Point 41 °F    
Average Humidity 52    
Maximum Humidity 77    
Minimum Humidity 24    
Precipitation  
Precipitation 0.00 in - - ()
Sea Level Pressure  
Sea Level Pressure 30.12 in    
Wind  
Wind Speed 9 mph (SSW)    
Max Wind Speed 13 mph    
Max Gust Speed -    
Visibility 10 miles    
Events      
Averages and records for this station are not official NWS values.
T = Trace of Precipitation, MM = Missing Value Source: NWS Daily Summary

Daily Weather History Graph

Daily Weather History Graph

Search for Another Location

Airport or City:

Trip Planner

Search our weather history database for the weather conditions in past years. The results will help you decide how hot, cold, wet, or windy it might be!

Date:

Astronomy

Nov. 29, 2012 Rise Set
Actual Time 7:29 AM CST 5:43 PM CST
Civil Twilight 7:03 AM CST 6:10 PM CST
Nautical Twilight 6:33 AM CST 6:40 PM CST
Astronomical Twilight 6:03 AM CST 7:10 PM CST
Moon 6:48 PM CST (11/29) 8:17 AM CST (11/29)
Length of Visible Light 11h 07m
Length of Day
10h 13m
Full, 99% of the Moon is Illuminated
Nov 29
Full
Dec 6
Last Quarter
Dec 13
New
Dec 19
First Quarter
Dec 28
Full

Hourly Weather History & Observations

Time (CST) Temp. Dew Point Humidity Pressure Visibility Wind Dir Wind Speed Gust Speed Precip Events Conditions
12:15 AM 53.4 °F 40.1 °F 61% 30.20 in 10.0 mi South 10.4 mph - N/A   Clear
12:35 AM 53.4 °F 40.1 °F 61% 30.19 in 10.0 mi South 11.5 mph - N/A   Clear
12:55 AM 53.1 °F 40.3 °F 62% 30.19 in 10.0 mi South 8.1 mph - N/A   Clear
1:15 AM 52.9 °F 40.5 °F 63% 30.19 in 10.0 mi South 6.9 mph - N/A   Clear
1:35 AM 52.7 °F 40.6 °F 64% 30.19 in 10.0 mi South 9.2 mph - N/A   Clear
1:55 AM 52.3 °F 40.8 °F 65% 30.18 in 10.0 mi South 8.1 mph - N/A   Clear
2:15 AM 52.0 °F 41.0 °F 66% 30.18 in 10.0 mi South 10.4 mph - N/A   Clear
2:35 AM 52.0 °F 41.0 °F 66% 30.18 in 10.0 mi South 8.1 mph - N/A   Clear
2:55 AM 51.8 °F 41.0 °F 67% 30.18 in 10.0 mi South 9.2 mph - N/A   Clear
3:15 AM 51.6 °F 41.2 °F 68% 30.18 in 10.0 mi South 9.2 mph - N/A   Clear
3:35 AM 51.4 °F 41.0 °F 68% 30.17 in 10.0 mi South 10.4 mph - N/A   Clear
3:55 AM 51.1 °F 41.2 °F 69% 30.17 in 10.0 mi South 9.2 mph - N/A   Clear
4:15 AM 51.1 °F 41.0 °F 68% 30.16 in 10.0 mi South 10.4 mph - N/A   Clear
4:35 AM 50.9 °F 41.0 °F 69% 30.16 in 10.0 mi South 9.2 mph - N/A   Clear
4:55 AM 50.4 °F 41.0 °F 70% 30.15 in 10.0 mi South 6.9 mph - N/A   Clear
5:15 AM 50.0 °F 40.8 °F 71% 30.15 in 10.0 mi South 8.1 mph - N/A   Clear
5:35 AM 50.0 °F 40.6 °F 70% 30.14 in 10.0 mi South 8.1 mph - N/A   Clear
5:55 AM 49.6 °F 40.5 °F 71% 30.15 in 10.0 mi South 8.1 mph - N/A   Clear
6:15 AM 49.3 °F 40.6 °F 72% 30.15 in 10.0 mi South 6.9 mph - N/A   Clear
6:35 AM 48.7 °F 40.5 °F 73% 30.15 in 10.0 mi South 8.1 mph - N/A   Clear
6:55 AM 48.4 °F 40.3 °F 74% 30.15 in 10.0 mi SSW 6.9 mph - N/A   Clear
7:15 AM 48.0 °F 40.3 °F 75% 30.15 in 10.0 mi South 4.6 mph - N/A   Clear
7:35 AM 47.5 °F 40.3 °F 76% 30.15 in 10.0 mi South 4.6 mph - N/A   Clear
7:55 AM 47.3 °F 40.3 °F 77% 30.15 in 10.0 mi SSW 4.6 mph - N/A   Clear
8:35 AM 49.8 °F 41.2 °F 72% 30.16 in 10.0 mi SSW 5.8 mph - N/A   Unknown
8:55 AM 51.3 °F 41.9 °F 70% 30.16 in 10.0 mi South 8.1 mph - N/A   Clear
9:15 AM 52.7 °F 42.3 °F 68% 30.16 in 10.0 mi SSW 10.4 mph - N/A   Clear
9:35 AM 54.1 °F 42.4 °F 65% 30.17 in 10.0 mi SSW 9.2 mph - N/A   Clear
9:55 AM 55.8 °F 42.6 °F 61% 30.17 in 10.0 mi SSW 8.1 mph - N/A   Clear
10:15 AM 58.1 °F 43.0 °F 57% 30.18 in 10.0 mi SSW 9.2 mph - N/A   Clear
10:35 AM 60.3 °F 43.0 °F 53% 30.17 in 10.0 mi SW 10.4 mph - N/A   Clear
10:55 AM 62.8 °F 42.8 °F 48% 30.16 in 10.0 mi SSW 8.1 mph - N/A   Clear
11:15 AM 65.1 °F 42.4 °F 44% 30.15 in 10.0 mi SSW 8.1 mph - N/A   Clear
11:35 AM 66.7 °F 42.1 °F 41% 30.14 in 10.0 mi SSW 6.9 mph - N/A   Clear
11:55 AM 68.5 °F 41.0 °F 37% 30.14 in 10.0 mi SSW 9.2 mph - N/A   Clear
12:15 PM 70.0 °F 40.1 °F 34% 30.14 in 10.0 mi SW 9.2 mph - N/A   Clear
12:35 PM 71.1 °F 39.6 °F 32% 30.13 in 10.0 mi SW 9.2 mph - N/A   Clear
12:55 PM 72.5 °F 39.9 °F 31% 30.12 in 10.0 mi WSW 10.4 mph - N/A   Clear
1:15 PM 73.4 °F 39.7 °F 30% 30.11 in 10.0 mi SW 8.1 mph - N/A   Clear
1:35 PM 74.5 °F 39.4 °F 28% 30.09 in 10.0 mi SW 8.1 mph - N/A   Clear
1:55 PM 75.2 °F 39.0 °F 27% 30.08 in 10.0 mi West 8.1 mph - N/A   Clear
2:15 PM 75.6 °F 39.0 °F 27% 30.07 in 10.0 mi SW 11.5 mph - N/A   Clear
2:35 PM 75.9 °F 38.8 °F 26% 30.07 in 10.0 mi WSW 9.2 mph - N/A   Clear
2:55 PM 76.1 °F 38.3 °F 26% 30.06 in 10.0 mi SW 9.2 mph - N/A   Clear
3:15 PM 76.3 °F 37.6 °F 25% 30.06 in 10.0 mi SW 8.1 mph - N/A   Clear
3:35 PM 76.5 °F 37.4 °F 24% 30.06 in 10.0 mi SW 9.2 mph - N/A   Clear
3:55 PM 76.6 °F 37.0 °F 24% 30.05 in 10.0 mi SW 10.4 mph - N/A   Clear
4:15 PM 76.5 °F 36.9 °F 24% 30.05 in 10.0 mi SW 10.4 mph - N/A   Clear
4:35 PM 76.5 °F 36.7 °F 24% 30.05 in 10.0 mi SW 9.2 mph - N/A   Clear
4:55 PM 75.9 °F 36.1 °F 24% 30.05 in 10.0 mi SW 11.5 mph - N/A   Clear
5:15 PM 75.0 °F 36.1 °F 24% 30.06 in 10.0 mi SW 9.2 mph - N/A   Clear
5:35 PM 73.6 °F 36.5 °F 26% 30.06 in 10.0 mi SW 5.8 mph - N/A   Clear
5:55 PM 72.0 °F 36.5 °F 27% 30.06 in 10.0 mi SSW 5.8 mph - N/A   Clear
6:15 PM 70.5 °F 36.7 °F 29% 30.06 in 10.0 mi SSW 4.6 mph - N/A   Clear
6:35 PM 68.9 °F 36.5 °F 30% 30.06 in 10.0 mi SSW 4.6 mph - N/A   Clear
6:55 PM 66.4 °F 36.7 °F 33% 30.07 in 10.0 mi South 5.8 mph - N/A   Clear
7:15 PM 65.3 °F 37.0 °F 35% 30.07 in 10.0 mi South 5.8 mph - N/A   Clear
7:35 PM 64.2 °F 37.6 °F 37% 30.08 in 10.0 mi South 11.5 mph - N/A   Clear
7:55 PM 64.4 °F 40.3 °F 41% 30.08 in 10.0 mi South 11.5 mph - N/A   Clear
8:15 PM 63.3 °F 42.3 °F 46% 30.09 in 10.0 mi South 9.2 mph - N/A   Clear
8:35 PM 62.4 °F 43.7 °F 50% 30.09 in 10.0 mi South 11.5 mph - N/A   Clear
8:55 PM 61.7 °F 44.4 °F 53% 30.10 in 10.0 mi South 12.7 mph - N/A   Clear
9:15 PM 60.6 °F 45.0 °F 56% 30.10 in 10.0 mi South 10.4 mph - N/A   Clear
9:35 PM 59.5 °F 45.1 °F 59% 30.10 in 10.0 mi South 11.5 mph - N/A   Clear
9:55 PM 59.0 °F 45.7 °F 61% 30.10 in 10.0 mi South 9.2 mph - N/A   Clear
10:15 PM 58.3 °F 45.9 °F 63% 30.10 in 10.0 mi SSW 9.2 mph - N/A   Clear
10:35 PM 57.7 °F 46.4 °F 66% 30.10 in 10.0 mi SSW 10.4 mph - N/A   Clear
10:55 PM 57.2 °F 46.4 °F 67% 30.11 in 10.0 mi SSW 9.2 mph - N/A   Clear
11:15 PM 56.5 °F 46.6 °F 69% 30.11 in 10.0 mi South 9.2 mph - N/A   Clear
11:35 PM 55.9 °F 46.8 °F 71% 30.12 in 10.0 mi South 8.1 mph - N/A   Clear
11:55 PM 55.2 °F 46.8 °F 73% 30.12 in 10.0 mi South 9.2 mph - N/A   Clear